Location: Bouquehault
(50.8258°N, 1.9028°E)
Time: 23:34:28
(UTC+00:00)

Daily predictions for brighter satellites

Satellite Brightness Start Highest point End
(mag) Time Altitude Azimuth Time Altitude Azimuth Time Altitude Azimuth
NOAA 6 4.5 16:35:35 10° S 16:40:45 70° WSW 16:45:55 10° NNW
Cosmos 2219 3.2 16:35:11 10° NNW 16:40:49 68° ENE 16:46:24 10° SE
Elektron 3 3.8 16:38:55 10° SW 16:42:23 79° SE 16:45:16 10° NE
Cosmos 1340 Rocket 2.9 16:39:02 10° SSW 16:43:04 86° W 16:47:10 10° NNE
SMAP 3.2 16:38:34 10° SE 16:43:05 51° ENE 16:47:36 10° N
SeaSat 1 2.8 16:38:31 10° ESE 16:43:10 43° NE 16:47:51 10° NNW
Cosmos 2369 Rocket 3.6 16:39:16 10° WSW 16:44:20 34° NW 16:49:25 10° NNE
Cosmos 1869 4.4 16:47:57 10° SE 16:51:08 24° E 16:54:19 10° NE
Cosmos 2221 2.7 16:47:46 10° S 16:51:56 51° E 16:56:10 10° NNE
ASTEX 1 3.4 16:46:57 10° N 16:52:00 80° E 16:57:00 10° S
YAOGAN 6 4.0 16:50:19 10° ESE 16:52:37 17° ENE 16:54:55 10° NNE
YAOGAN 1 3.9 16:53:04 10° ESE 16:56:04 19° ENE 16:59:04 10° NNE
Cosmos 1455 3.0 16:52:58 10° SSW 16:56:40 52° WNW 17:00:21 10° N
Cosmos 1689 Rocket 3.4 16:54:11 10° N 16:57:06 41° WNW 16:59:59 10° SW
IRS-1C Rocket 4.1 16:52:19 10° SSE 16:57:36 83° ENE 17:02:55 10° NNW
Cosmos 2227 Rocket 2.2 16:54:44 10° NNW 17:00:23 62° NE 17:05:59 10° SE
Cosmos 2297 Rocket 2.2 16:54:51 10° NNW 17:00:30 66° ENE 17:06:08 10° SE
Cosmos 1238 Rocket 2.9 16:55:53 10° N 17:00:36 75° E 17:04:23 10° SSE
CORIOLIS 4.2 16:56:15 10° SSE 17:01:35 66° ENE 17:07:00 10° N
CZ-4 R/B 2.5 16:58:44 10° ESE 17:02:02 23° ENE 17:05:17 10° N
CENTAUR R/B 3.9 16:56:26 10° WNW 17:02:31 32° N 17:09:25 10° NE
Cosmos 1842 Rocket 3.6 17:01:07 10° S 17:05:37 88° WNW 17:10:07 10° N
Meteor 2-10 Rocket 3.7 17:00:45 10° SSW 17:05:45 76° WNW 17:10:52 10° N
Cosmos 2344 3.7 17:00:56 10° SW 17:08:26 88° NW 17:17:02 10° NE
Okean-O 2.7 17:07:12 10° SSE 17:11:33 58° ENE 17:15:55 10° N
Cosmos 1943 Rocket 4.1 17:11:22 10° W 17:15:43 22° NW 17:20:05 10° NNE
Cosmos 1939 Rocket 4.5 17:14:57 15° ENE 17:15:50 16° ENE 17:18:27 10° NNE
Ariane Rocket 4.4 17:14:22 13° E 17:16:53 18° NE 17:20:18 10° NNE
H-2A R/B 2.7 17:14:48 10° SSE 17:18:39 89° WSW 17:22:30 10° NNW
ATLAS 3B R/B 3.9 17:14:53 10° WNW 17:20:29 28° N 17:25:37 12° NE
Cosmos 1805 Rocket 3.4 17:18:14 10° N 17:22:36 71° E 17:26:58 10° SSE
Genesis I 3.2 17:18:41 10° SW 17:22:42 76° SE 17:25:52 16° NE
Cosmos 2263 Rocket 3.5 17:18:54 10° NNW 17:23:00 20° NE 17:25:09 17° ENE
Cosmos 2233 Rocket 4.3 17:17:58 10° NNW 17:24:17 73° W 17:30:32 10° S
Cosmos 773 Rocket 3.9 17:19:57 10° SSW 17:25:04 70° ESE 17:30:17 10° NNE
Cosmos 1867 3.6 17:20:55 10° SW 17:26:23 83° NW 17:31:30 12° NE
H-2A R/B 4.0 17:28:54 11° NE 17:28:54 11° NE 17:29:57 10° NNE
Cosmos 2082 3.7 17:22:40 10° NNW 17:28:16 64° ENE 17:33:51 10° SE
COBE Rocket 3.8 17:28:06 10° NNE 17:32:56 65° E 17:37:36 10° S
Cosmos 1447 Rocket 4.5 17:26:45 10° S 17:32:59 86° E 17:39:21 10° N
Cosmos 2056 Rocket 4.2 17:31:35 10° N 17:36:09 31° NE 17:38:46 20° E
Meteor 1-27 4.4 17:31:38 10° SSW 17:37:18 77° WNW 17:43:06 10° N
ATLAS 5 CENTAUR R/B 2.8 17:33:11 10° NW 17:38:47 65° SW 17:45:16 10° SSE
Cosmos 1697 Rocket 3.4 17:34:27 10° SSE 17:39:22 31° ESE 17:42:02 21° ENE
Meteor 2-2 Rocket 4.3 17:33:39 10° S 17:39:31 86° E 17:45:18 10° NNE
Cosmos 1862 3.4 17:36:44 10° N 17:40:38 50° ENE 17:44:31 10° SSE
Meteor 2-20 Rocket 4.4 17:34:56 10° S 17:40:56 63° E 17:47:01 10° NNE
CZ-3B R/B 3.0 17:41:43 10° WNW 17:43:44 36° N 17:44:04 34° NNE
Cosmos 1538 Rocket 3.9 17:40:13 10° SSW 17:45:29 78° ESE 17:50:51 10° NNE
BREEZE-M DEB (TANK) 2.0 17:43:33 10° W 17:47:04 71° S 17:47:37 46° ESE
Cosmos 1464 Rocket 3.9 17:41:22 10° N 17:47:34 74° E 17:53:41 10° SSE
Cosmos 1891 Rocket 4.4 17:41:20 10° N 17:47:46 75° E 17:54:01 10° SSE
NOAA 12 4.4 17:44:06 10° S 17:49:26 72° WSW 17:54:47 10° NNW
GEOS 3 Rocket 3.6 17:45:35 18° NE 17:49:30 79° SE 17:54:47 10° SW
Cosmos 1633 Rocket 3.0 17:47:39 10° N 17:52:02 64° ENE 17:56:26 10° SSE
Meteor 2-20 4.5 17:46:02 10° S 17:52:10 86° W 17:58:23 10° N
Cosmos 1072 Rocket 4.4 17:50:35 10° N 17:56:45 89° WSW 18:02:56 10° S
Cosmos 397 4.3 17:54:48 10° NW 17:59:02 83° NE 18:01:34 23° SE
USA 215 3.3 17:56:07 24° E 18:00:12 68° NNE 18:06:41 10° WNW
Cosmos 1633 2.6 17:56:44 10° NNW 18:00:24 79° W 18:04:02 10° S
COSMO-SKYMED 1 2.5 17:57:19 11° NNE 18:01:32 64° E 18:05:51 10° S
Cosmos 1666 Rocket 3.5 17:59:09 10° NNW 18:03:34 84° W 18:07:55 10° S
Cosmos 1933 Rocket 4.2 18:00:29 10° N 18:03:45 34° NE 18:03:45 34° NE
Sich 1 3.5 18:00:18 10° NNW 18:04:36 62° W 18:08:54 10° S
Cosmos 1844 Rocket 4.5 18:03:37 10° N 18:06:36 14° NNE 18:06:43 14° NNE
NOSS 2-3 (E) 4.4 18:04:48 10° S 18:08:49 35° ESE 18:08:53 35° ESE
Cosmos 1656 3.5 18:04:10 10° SSW 18:09:43 82° ESE 18:13:25 22° NNE
Cosmos 1328 Rocket 3.6 18:06:16 10° S 18:10:34 51° E 18:11:27 43° NE
USA 229 DEB 3.6 18:04:34 10° SW 18:11:12 87° SE 18:15:39 24° NE
USA 229 3.6 18:04:41 10° SW 18:11:18 86° SE 18:15:43 24° NE
Envisat 3.7 18:07:25 10° S 18:12:24 56° W 18:17:26 10° NNW
NOAA 11 4.1 18:07:32 10° SSE 18:12:52 61° ENE 18:18:14 10° N
Cosmos 1151 Rocket 3.1 18:09:07 10° S 18:13:19 50° E 18:13:22 50° E
NOSS 3-1 (A) 3.4 18:10:52 10° SSW 18:16:23 62° SE 18:18:58 35° ENE
Cosmos 1356 Rocket 4.0 18:12:32 10° SSW 18:16:39 58° WNW 18:20:52 10° N
NOSS 3-1 (C) 3.3 18:11:02 10° SW 18:16:41 86° SE 18:20:15 28° NE
CSL-04 Debris 4.1 18:11:33 10° SSE 18:17:04 89° WSW 18:22:36 10° NNW
Cosmos 1932 4.5 18:11:33 10° NW 18:18:07 83° NE 18:22:24 24° SE
NOSS 2-3 (D) 4.3 18:14:08 10° S 18:17:54 38° SE 18:17:54 38° SE
SeaSat 1 3.9 18:16:12 10° S 18:20:45 37° WSW 18:25:21 10° NW
CZ-2D R/B 3.6 18:24:16 52° NNE 18:24:16 52° NNE 18:27:21 10° N
YAOGAN 6 3.6 18:22:27 10° S 18:25:50 44° W 18:29:12 10° NNW
Lacrosse 4 Rocket 1.2 18:22:29 10° SSW 18:26:18 68° SSE 18:26:18 68° SSE
Cosmos 1371 Rocket 3.8 18:21:21 10° NNW 18:26:37 80° ENE 18:29:08 31° SSE
YAOGAN 1 2.9 18:27:27 10° S 18:31:45 64° WSW 18:36:04 10° NNW
Cosmos 1470 Rocket 3.5 18:29:58 10° N 18:34:30 87° W 18:37:26 22° S
CSL-04 Rocket 3.9 18:29:27 10° S 18:34:47 67° WSW 18:40:06 10° NNW
USA 116 4.1 18:34:34 35° NNE 18:36:32 89° WNW 18:41:32 10° SSW
CZ-4 R/B 2.6 18:32:52 10° S 18:36:51 43° W 18:40:47 10° NNW
ERBS 3.8 18:33:57 10° SW 18:35:53 31° SW 18:35:53 31° SW
MOS 1 4.3 18:39:53 54° ENE 18:39:53 54° ENE 18:45:14 10° N
Cosmos 724 4.5 18:34:06 10° NW 18:39:56 68° SW 18:43:12 26° SSE
Cosmos 2346 Rocket 4.3 18:33:59 10° S 18:40:13 82° E 18:46:27 10° NNE
Cosmos 2112 Rocket 3.8 18:38:04 10° SSW 18:43:15 74° ESE 18:43:26 73° E
Cosmos 1980 Rocket 2.5 18:37:47 10° S 18:42:21 48° SE 18:42:21 48° SE
Cosmos 2227 Rocket 4.3 18:39:23 10° NW 18:44:03 27° WSW 18:48:40 10° SSW
Cosmos 2297 Rocket 4.4 18:39:36 10° NW 18:44:06 25° WSW 18:48:35 10° SSW
Cosmos 2034 Rocket 4.4 18:38:05 10° NNW 18:44:20 63° W 18:50:37 10° S
Cosmos 1939 Rocket 3.4 18:50:52 59° NW 18:50:52 59° NW 18:54:27 10° NNW
Cosmos 1680 Rocket 3.4 18:45:16 10° SSW 18:50:29 87° WNW 18:51:19 64° NNE
Ariane Rocket 2.9 18:54:35 70° S 18:55:13 86° WSW 19:00:21 10° NNW
CENTAUR R/B 3.7 18:48:28 10° NW 18:55:16 37° NNE 18:56:35 35° NE
NOSS 2-3 (C) 4.2 18:51:36 10° SW 18:54:59 53° SSW 18:54:59 53° SSW
USA 238 DEB 4.0 18:54:51 10° NW 19:01:43 50° NNE 19:02:04 49° NE
USA 238 4.0 18:54:56 10° NW 19:01:49 49° NNE 19:02:10 49° NE
Timation 1 Rocket 4.4 18:57:22 10° NNW 19:02:48 64° NNE 19:02:48 64° NNE
Cosmos 2369 4.0 18:58:59 10° SW 19:04:38 66° WNW 19:06:07 48° N
Cosmos 1634 Rocket 3.8 18:59:28 10° N 19:05:43 89° ENE 19:07:08 57° S
H-2A R/B 3.7 19:09:31 24° N 19:09:31 24° N 19:11:42 10° N
Cosmos 2263 Rocket 2.4 19:02:18 10° NNW 19:06:52 58° N 19:06:52 58° N
NOSS 3-2 (A) 4.2 19:01:28 10° NW 19:08:23 50° NNE 19:08:42 50° NE
Tsikada Rocket 4.2 19:03:33 10° SSW 19:09:55 74° WNW 19:16:23 10° N
Cosmos 2142 Rocket 4.4 19:05:29 10° N 19:11:29 75° NE 19:11:29 75° NE
ATLAS 3B R/B 3.6 19:07:10 10° NW 19:12:52 32° NNE 19:12:52 32° NNE
Cosmos 2360 4.3 19:11:35 10° SSW 19:16:37 69° SW 19:16:37 69° SW
Cosmos 2056 Rocket 4.3 19:13:34 10° NNW 19:18:30 48° WSW 19:19:10 45° SW
Cosmos 1697 Rocket 3.3 19:17:33 10° SW 19:23:06 53° NW 19:23:49 50° NNW
Gblst 52 Del rocket 4.4 19:16:26 10° W 19:22:38 77° WNW 19:22:38 77° WNW
Cosmos 2278 4.0 19:18:43 10° SW 19:24:19 63° WNW 19:24:19 63° WNW
USA 215 3.5 19:43:29 59° SW 19:43:29 59° SW 19:49:48 10° WNW
NOSS 3-2 (C) 4.4 19:44:29 10° NW 19:50:03 49° N 19:50:03 49° N
Cosmos 1980 Rocket 4.4 20:22:19 10° WSW 20:24:11 20° W 20:24:11 20° W
CENTAUR R/B 4.1 20:39:23 10° NW 20:43:45 39° NW 20:43:45 39° NW
